Showing default

COSMOS 1832, 17587

Orbit data source: Space-Track

COSMOS 1832, 17587 is a payload satellite owned by UNKS (CIS) in LEO that was launched on Fri, 13 Mar 1987 UTC via a TSIKLON-3 launch vehicle from the Plesetsk Missile And Space Complex (PKMTR). Payload-class satellites include a variety of spacecraft equipped with specific instruments for various scientific and technological missions. These include communications satellites like Starlink; space stations such as the ISS; scientific satellites like the Hubble; Earth observation satellites from companies like Planet Labs, Umbra, and HawkEye 360; GPS; miniature CubeSats for education and research; and military/defense satellites.

Loading next visibility...
Identifier
17587, 1987-026F
Orbit
LEO
Country
Flag of CISCIS
Related business
Manufacturer
NPO PM
Mission
Defense Communications
Bus & Motor
STRELA-3, Unknown motor
Mass
225 kg wet, 225 kg dry
Launch date (UTC)
1987-03-13 (39 years ago)
Launch vehicle
TSIKLON-3
Launch site
Plesetsk Missile And Space Complex (PKMTR)
Object type
Payload
Rocket body
Debris
Shape & HBR
Cyl, 0.8 m
Radar Cross Section
1.257 m², Large (>1 m²)

Expand to show TLE details & history
Last TLE update: 18 hours ago

TLE from 18 hours ago
0 COSMOS 1832
1 17587U 87026F   25261.29158256  .00000011  00000-0  35956-5 0  9990
2 17587  82.5729  16.0471 0009950  85.1719 302.3632 12.64335460777347
Epoch: 2025-09-18T06:59Z
TLE epoch observation values (Epoch: 2025-09-18T06:59:52.733Z)
Latitude
27.22534°
Longitude
-82.55135°
Altitude
1,404.15 km
Speed
7.162 km/s
True Right ascension
01h 19m 29s
True Declination
27° 05' 50"
Sunlit
Object was in full shadow at epoch
Visualization orbit readout
Latitude
Unknown
Longitude
Unknown
Altitude
Unknown
Speed
Unknown
Apparent Right ascension
Unknown
Apparent Declination
Unknown
Sunlit
N/A
Visualization observer readout
Local Sidereal Time
17:26:58
Azimuth
Unknown
Elevation
Unknown
Doppler factor
Unknown
Orbital elements
Apogee altitude
1,410.16 km
Perigee altitude
1,394.677 km
Semi-major axis
7,780.556 km
Eccentricity
0.001
Inclination
82.5729°
RAAN
16.0471°
Arg. of periapsis
85.1719°
True anomaly
302.26683°
Mean anomaly
302.3632°
Eccentric anomaly
302.31502°
Mean motion
3.16248 °/min
Orbital period
113.83 mins
BSTAR
0.0000035956
Loading maneuver chart data...
Computing Atmospheric mass density...
Loading historical data...
Loading historical data...
Loading historical data...
Loading historical data...
Loading historical data...
Loading historical data...
Loading historical data...

Documentation

Showing up to 5 results
|